{"data":{"norad_id":57815,"intl_designator":"2023-138H","name":"STARLINK-30398","alt_names":[],"object_type":"PAYLOAD","status":"ACTIVE","operator":null,"country":"US","launch_date":"2023-09-09","launch_site_code":"AFETR","launch_vehicle":null,"mission":null,"orbit_class":"UNKNOWN","rcs_meters":null,"size_class":null,"mass_kg":null,"dimensions":null,"purposes":["comms"],"wikipedia_slug":null,"has_3d_model":false,"image_url":null,"decayed_at":null,"tle_current":{"epoch":"2026-09-20T22:01:45.778080Z","epoch_age_seconds":99091,"freshness":"FRESH","line1":"1 57815U 23138H   26263.91789095  .00000421  00000+0  24836-4 0  9993","line2":"2 57815  43.0035 211.8339 0001131 268.2618  91.8104 15.27579175168499","mean_motion":15.27579175,"eccentricity":0.0001131,"inclination_deg":43.0035,"raan_deg":211.8339,"arg_perigee_deg":268.2618,"mean_anomaly_deg":91.8104,"bstar":2.4836e-5,"rev_number":16849,"period_min":94.266799624314,"perigee_km":482.2755659607,"apogee_km":483.82756681442,"semimajor_km":6861.1885663876,"source":"CELESTRAK","updated_at":"2026-09-21T09:00:33.707964Z"}}}